カタログに戻る

SL-12 DEB

運用中HEO
NORAD 23616·DEBRIS·🇷🇺 Russia

打ち上げ Jul 30, 1992 から Baikonur Cosmodrome

Loading…

次のパス (今後24時間)

TLE

最新Source: Space-Track

元期: Sep 14, 2026, 21:48 UTC

1 23616U 92047J   26257.90874997  .00059318  00000-0  18015-2 0  9998
2 23616  64.2251  74.4494 3135504 131.5917 259.9772  9.14057741151130

AllMySatでSL-12 DEBをリアルタイム追跡

Download on the App Store